Tracking 19489 objects as of 22-Jan-2019
HD Live streaming from Space Station
objects crossing your sky now

FENGYUN 1C DEB

Track FENGYUN 1C DEB now!
10-day predictions


NORAD ID: 31756
Int'l Code: 1999-025CFF
Perigee: 780.1 km
Apogee: 866.6 km
Inclination: 99.3 °
Period: 101.2 minutes
Semi major axis: 7194 km
RCS: 0.0132 m2 (small)
Launch date: May 10, 1999
Source: People's Republic of China (PRC)
Launch site: Taiyaun Space Center, China (TSC)

Note: This is SATELLITE DEBRIS
aabbcc
Your satellite tracking list
Your tracking list is empty




NASA's NSSDC Master Catalog

Two Line Element Set (TLE):
1 31756U 99025CFF 19021.52981005 +.00000394 +00000-0 +19413-3 0  9997
2 31756 099.3468 299.7552 0060105 168.6303 191.6246 14.22708444605401
Source of the keplerian elements: AFSPC